Weather History for K8D3 - July, 2014

Change the Weather History Date:

Saturday, July 12, 2014

  Actual Average Record
Temperature  
Mean Temperature 71 °F 71 °F  
Max Temperature 81 °F 83 °F 109 °F (1936)
Min Temperature 61 °F 60 °F 47 °F (1950)
Degree Days  
Heating Degree Days 0 0  
Month to date heating degree days 6 3  
Since 1 June heating degree days 41 65  
Since 1 July heating degree days 6 3  
Cooling Degree Days 6 7  
Month to date cooling degree days 64 73  
Year to date cooling degree days 213 190  
Since 1 June cooling degree days 152 167  
Growing Degree Days 22 (Base 50)    
Moisture  
Dew Point 62 °F    
Average Humidity 68    
Maximum Humidity 87    
Minimum Humidity 49    
Precipitation  
Precipitation 0.01 in 0.12 in 1.39 in (1992)
Month to date precipitation 0.98 1.37  
Year to date precipitation 18.02 12.09  
Sea Level Pressure  
Sea Level Pressure 29.96 in    
Wind  
Wind Speed 7 mph (NW)    
Max Wind Speed 17 mph    
Max Gust Speed 22 mph    
T = Trace of Precipitation, MM = Missing Value Source: NWS Daily Summary

Daily Weather History Graph

Daily Weather History Graph

Search for Another Location

Airport or City:

Trip Planner

Search our weather history database for the weather conditions in past years. The results will help you decide how hot, cold, wet, or windy it might be!

Date:

Astronomy

Jul. 12, 2014 Rise Set
Actual Time 5:50 AM CDT 9:16 PM CDT
Civil Twilight 5:13 AM CDT 9:53 PM CDT
Nautical Twilight 4:24 AM CDT 10:41 PM CDT
Astronomical Twilight 3:22 AM CDT 11:43 PM CDT
Moon 9:12 PM CDT (7/12) 6:16 AM CDT (7/12)
Length of Visible Light 16h 39m
Length of Day
15h 25m
Full, 100% of the Moon is Illuminated
Jul 12
Full
Jul 18
Last Quarter
Jul 26
New
Aug 3
First Quarter
Aug 10
Full

Hourly Weather History & Observations

Time (CDT) Temp. Heat Index Dew Point Humidity Pressure Visibility Wind Dir Wind Speed Gust Speed Precip Events Conditions
12:56 AM 69.1 °F - 64.0 °F 84% 29.96 in - North 5.8 mph - N/A   Unknown
1:56 AM 68.0 °F - 63.0 °F 84% 29.96 in - North 6.9 mph - N/A   Unknown
2:56 AM 68.0 °F - 62.1 °F 81% 29.96 in - North 6.9 mph - N/A   Unknown
3:56 AM 66.0 °F - 62.1 °F 87% 29.97 in - NNW 6.9 mph - N/A   Unknown
4:56 AM 64.9 °F - 61.0 °F 87% 29.97 in - North 5.8 mph - N/A   Unknown
5:56 AM 64.9 °F - 60.1 °F 84% 29.96 in - NNW 5.8 mph - N/A   Unknown
6:56 AM 64.9 °F - 60.1 °F 84% 29.98 in - NNW 5.8 mph - N/A   Unknown
7:56 AM 66.0 °F - 60.1 °F 81% 29.98 in - North 8.1 mph - N/A   Unknown
8:56 AM 66.0 °F - 61.0 °F 84% 30.00 in - NNW 5.8 mph - N/A   Unknown
9:56 AM 66.0 °F - 62.1 °F 87% 30.04 in - WSW 10.4 mph - N/A   Unknown
10:56 AM 69.1 °F - 61.0 °F 75% 30.02 in - West 5.8 mph - N/A   Unknown
11:56 AM 69.1 °F - 62.1 °F 78% 30.02 in - NNW 8.1 mph - N/A   Unknown
12:56 PM 69.1 °F - 64.0 °F 84% 30.00 in - Calm Calm - 0.01 in   Unknown
1:56 PM 73.0 °F - 64.0 °F 73% 29.97 in - SSW 4.6 mph - N/A   Unknown
2:56 PM 79.0 °F - 60.1 °F 52% 29.96 in - Variable 4.6 mph - N/A   Unknown
3:56 PM 80.1 °F 80.7 °F 59.0 °F 48% 29.94 in - NW 9.2 mph - N/A   Unknown
4:56 PM 80.1 °F 80.7 °F 59.0 °F 48% 29.94 in - NW 11.5 mph - N/A   Unknown
5:56 PM 80.1 °F 81.2 °F 62.1 °F 54% 29.92 in - WNW 15.0 mph - N/A   Unknown
6:56 PM 80.1 °F 81.5 °F 63.0 °F 56% 29.91 in - WNW 9.2 mph - N/A   Unknown
7:56 PM 78.1 °F - 64.0 °F 62% 29.90 in - WNW 5.8 mph - N/A   Unknown
8:56 PM 75.0 °F - 64.9 °F 71% 29.90 in - WNW 5.8 mph - N/A   Unknown
9:56 PM 71.1 °F - 64.0 °F 78% 29.91 in - West 6.9 mph - N/A   Unknown
10:56 PM 70.0 °F - 63.0 °F 78% 29.91 in - West 6.9 mph - N/A   Unknown
11:56 PM 71.1 °F - 61.0 °F 70% 29.91 in - NW 11.5 mph - N/A   Unknown